Overview Statistics Trail Chart Weather Telemetry Raw packets
 

This is the latest recevied weather packets stored in our database for station/object K7SKM. If no packets are shown the sender has not sent any weather packets the latest 10 day(s).

<< 76 77 78 79 80 81 82 >>
Time Temp. Humidity Pressure Rain* Wind** Luminosity Snow
1788129281 21.67° C 50% 1023.6 hPa 0 mm - 103 W/m² -
1788128979 21.11° C 50% 1023.5 hPa 0 mm - 204 W/m² -
1788128675 21.67° C 49% 1023.8 hPa 0 mm - 75 W/m² -
1788128370 21.67° C 51% 1024 hPa 0 mm - 91 W/m² -
1788128066 21.67° C 50% 1024 hPa 0 mm - 107 W/m² -
1788127762 21.11° C 51% 1023.6 hPa 0 mm - 102 W/m² -
1788127456 21.67° C 50% 1023.7 hPa 0 mm - 86 W/m² -
1788127154 21.67° C 50% 1023.8 hPa 0 mm - 79 W/m² -
1788126849 21.11° C 52% 1024.1 hPa 0 mm - 88 W/m² -
1788126543 21.11° C 51% 1023.9 hPa 0 mm - 220 W/m² -
1788126238 21.67° C 49% 1023.9 hPa 0 mm - 84 W/m² -
1788125933 21.11° C 51% 1024.3 hPa 0 mm - 145 W/m² -
1788125629 21.11° C 51% 1024.2 hPa 0 mm - 102 W/m² -
1788125324 20.56° C 53% 1024.2 hPa 0 mm - 101 W/m² -
1788125020 20° C 54% 1024.5 hPa 0 mm - 82 W/m² -
1788124719 20° C 54% 1024.3 hPa 0 mm - 107 W/m² -
1788124413 20° C 55% 1024.4 hPa 0 mm - 105 W/m² -
1788124109 20° C 54% 1024.5 hPa 0 mm - 82 W/m² -
1788123808 20° C 53% 1024.3 hPa 0 mm - 97 W/m² -
1788123506 20.56° C 53% 1024.4 hPa 0 mm - 78 W/m² -
1788123206 20° C 54% 1024.7 hPa 0 mm - 72 W/m² -
1788122901 20° C 54% 1024.5 hPa 0 mm - 85 W/m² -
1788122600 20.56° C 54% 1024.6 hPa 0 mm - 379 W/m² -
1788122296 20.56° C 54% 1024.7 hPa 0 mm - 131 W/m² -
1788121992 20.56° C 54% 1024.8 hPa 0 mm - 317 W/m² -

* Rain latest hour (hover to see other rain measurements)
** Current wind speed in m/s (hover to see current wind gust speed)